Boulder City, Nevada Weather observations

Data are for observation ending at time listed.
 Day   Time    Ave.   Ave.  Ave.  Vector   Max.   Stn.    Total    Solar   Ave.  
  of    of     Air    Rel.  Wind   Wind    Wind   Baro.  Precip.   Rad.    Soil  
Year   Day     Temp.  Hum.  Speed  Dir.    Gust   Pres.                    Temp. 
2026   (PST)    F      %     mph   deg.    mph     mb.     in.     W/m2     F   
------------------------------------------------------------------------------
 246   10:20   87.9    11    7.5   141     21.1   915.5    0.00     588    92.2
 246   10:30   88.1    11   10.5   151     22.5   915.5    0.00     644    92.7
 246   10:40   88.4    11    7.2   126     18.6   915.4    0.00     855    93.1
 246   10:50   88.7    11    7.7   134     19.1   915.2    0.00     863    93.6
 246   11:00   88.8    10    9.4   140     21.7   915.1    0.00     866    94.1
 246   11:10   89.3    10    8.7   132     17.2   915.3    0.00     862    94.5
 246   11:20   89.4    10    7.4   135     16.8   915.0    0.00     869    95.0
 246   11:30   89.5    10    9.1   129     23.2   914.8    0.00     879    95.4
 246   11:40   90.1    10    8.7   140     18.8   914.7    0.00     878    95.8
 246   11:50   90.4    10    8.3   148     18.9   914.6    0.00     877    96.3
 246   12:00   90.6     9    8.5   146     16.6   914.5    0.00     874    96.7
 246   12:10   91.1     9    8.3   144     23.5   914.3    0.00     868    97.1
 246   12:20   91.2     9    7.5   120     19.7   914.2    0.00     861    97.4
 246   12:30   91.3     9   10.2   126     21.3   914.1    0.00     853    97.8
 246   12:40   91.0     9    9.8   142     20.0   914.0    0.00     842    98.2
 246   12:50   91.4     9    9.6   135     21.0   913.9    0.00     830    98.4
 246   13:00   92.6     8    8.5   158     18.5   913.8    0.00     816    98.7
 246   13:10   92.4     9   10.9   141     26.3   913.9    0.00     800    99.0
 246   13:20   92.1     9    8.7   137     19.9   913.8    0.00     784    99.3
 246   13:30   92.9     9    8.4   146     22.2   913.8    0.00     766    99.6
 246   13:40   92.7     9   10.2   154     24.3   913.8    0.00     745    99.8
 246   13:50   92.4     9    9.9   142     26.3   913.7    0.00     728    100.0
 246   14:00   92.7     9   11.0   142     25.6   913.5    0.00     706    100.2
 246   14:10   92.5     9   10.4   134     21.3   913.5    0.00     682    100.3
 246   14:20   92.7     9    9.3   130     20.4   913.5    0.00     656    100.4
 246   14:30   93.8     8    7.3   126     23.7   913.3    0.00     629    100.5
 246   14:40   93.4     8   11.6   148     21.6   913.3    0.00     601    100.7
 246   14:50   93.4     8   10.7   145     26.5   913.2    0.00     573    100.7
 246   15:00   93.4     8   11.1   148     23.2   913.0    0.00     545    100.7
 246   15:10   93.3     7   10.0   150     23.4   912.9    0.00     514    100.7
 246   15:20   93.4     7   10.5   145     21.9   912.7    0.00     482    100.5
 246   15:30   93.3     8    8.7   123     21.2   912.7    0.00     449    100.4
 246   15:40   92.7     8   10.8   157     28.9   912.6    0.00     417    100.2
 246   15:50   93.0     8    9.7   154     20.8   912.5    0.00     384    100.0
 246   16:00   92.8     8    9.3   150     26.2   912.5    0.00     350    99.6
 246   16:10   92.7     8   10.5   156     24.3   912.4    0.00     316    99.4
 246   16:20   92.7     8   10.2   154     21.8   912.3    0.00     283    99.2
 246   16:30   92.1     8   11.2   160     22.7   912.3    0.00     249    98.9
 246   16:40   91.8     8   10.4   156     24.3   912.1    0.00     215    98.7
 246   16:50   91.5     8    8.1   153     18.9   912.1    0.00     184    98.6
 246   17:00   91.5     9    7.5   151     22.3   912.1    0.00     153    98.4
 246   17:10   90.9     9    9.4   150     22.3   912.1    0.00     125    98.2
 246   17:20   90.5    10    9.1   149     22.2   911.9    0.00      98    98.1
 246   17:30   90.0    10    8.3   156     18.5   911.8    0.00      73    97.8
 246   17:40   89.7    10    7.7   161     16.2   911.7    0.00      23    97.4
 246   17:50   89.2    10    7.6   166     16.9   911.7    0.00      13    97.2
 246   18:00   88.9    10    7.9   172     19.7   911.7    0.00       8    97.0
 246   18:10   88.5    11    7.1   173     16.1   911.6    0.00       4    96.7
 246   18:20   88.2    10    8.6   170     19.6   911.6    0.00       1    96.5
 246   18:30   87.9    10    7.1   176     14.2   911.5    0.00       0    96.2
 246   18:40   87.7    10    6.7   175     15.9   911.5    0.00       0    95.9
 246   18:50   87.2    10    6.0   194     11.2   911.5    0.00       0    95.7
 246   19:00   86.6    10    5.3   214     10.7   911.6    0.00       0    95.5
 246   19:10   86.0    10    5.0   208     13.9   911.7    0.00       0    95.2
 246   19:20   85.8    10    6.2   215     10.7   911.7    0.00       0    94.9
 246   19:30   85.5    10    6.3   216     11.5   911.8    0.00       0    94.7
 246   19:40   84.9    10    4.9   225      9.1   911.8    0.00       0    94.5
 246   19:50   84.1    10    3.6   207      8.9   911.9    0.00       0    94.2
 246   20:00   84.5    10    6.3   192     10.7   912.0    0.00       0    94.0
 246   20:10   84.4    10    5.5   193     10.1   912.0    0.00       0    93.8
 246   20:20   84.3    10    5.9   182     11.2   912.1    0.00       0    93.5
 246   20:30   83.6    10    3.4   216      9.3   912.2    0.00       0    93.3
 246   20:40   81.8    11    3.5   248      6.0   912.2    0.00       0    93.2
 246   20:50   81.8    11    4.9   240      9.2   912.2    0.00       0    93.0
 246   21:00   81.9    11    4.9   235      8.5   912.1    0.00       0    92.7
 246   21:10   81.6    11    5.2   238      9.3   912.1    0.00       0    92.5
 246   21:20   81.9    11    5.5   234     10.4   911.9    0.00       0    92.2
 246   21:30   80.9    11    4.1   217      6.1   911.8    0.00       0    92.0
 246   21:40   80.2    11    4.2   218      8.2   911.7    0.00       0    91.8
 246   21:50   80.9    11    5.4   230      9.3   911.6    0.00       0    91.7
 246   22:00   82.0    11    7.2   222     11.0   911.5    0.00       0    91.5
 246   22:10   82.4    11    7.6   223     11.8   911.6    0.00       0    91.3
 246   22:20   81.9    11    7.3   226     12.7   911.6    0.00       0    91.0
 246   22:30   81.8    11    7.3   228     11.5   911.6    0.00       0    90.8
 246   22:40   81.6    11    6.9   221     10.7   911.6    0.00       0    90.6
 246   22:50   81.4    11    5.0   176      8.3   911.7    0.00       0    90.4
 246   23:00   80.4    12    6.0   228     10.1   911.6    0.00       0    90.3
 246   23:10   80.5    11    5.3   236      9.4   911.7    0.00       0    90.1
 246   23:20   80.5    11    4.8   222      8.0   911.8    0.00       0    90.0
 246   23:30   79.5    11    3.8   238      5.9   911.8    0.00       0    89.8
 246   23:40   79.1    12    4.3   221      7.3   911.8    0.00       0    89.6
 246   23:50   79.0    12    5.6   223     12.4   911.8    0.00       0    89.6
 247    0:00   78.9    12    5.5   241     10.7   911.8    0.00       0    89.4
 247    0:10   78.9    12    6.4   228      9.5   911.8    0.00       0    89.2
 247    0:20   79.7    12    6.9   224     11.2   911.8    0.00       0    89.0
 247    0:30   79.8    12    8.4   219     15.0   911.8    0.00       0    88.8
 247    0:40   80.5    12    9.8   192     16.1   911.8    0.00       0    88.7
 247    0:50   80.1    13    7.5   206     15.7   911.8    0.00       0    88.5
 247    1:00   78.6    14    5.8   219      9.2   911.8    0.00       0    88.3
 247    1:10   78.0    14    4.7   218     11.0   911.7    0.00       0    88.2
 247    1:20   77.6    14    6.0   201     13.7   911.9    0.00       0    88.1
 247    1:30   78.4    14    5.5   200     11.6   911.8    0.00       0    88.0
 247    1:40   76.7    15    4.7   229      7.9   911.9    0.00       0    87.8
 247    1:50   76.0    16    4.5   226      8.0   911.9    0.00       0    87.7
 247    2:00   76.7    15    6.6   239     10.2   911.9    0.00       0    87.6
 247    2:10   77.1    16    6.4   235     11.2   912.0    0.00       0    87.5
 247    2:20   76.7    16    6.4   233     11.8   912.1    0.00       0    87.3
 247    2:30   76.7    17    5.9   241     11.4   912.2    0.00       0    87.3
 247    2:40   76.9    17    5.7   225      9.7   912.3    0.00       0    87.1
 247    2:50   76.3    18    4.5   239      8.2   912.4    0.00       0    86.9
 247    3:00   76.0    18    4.0   244      6.9   912.5    0.00       0    86.8
 247    3:10   75.9    19    4.4   242     10.2   912.5    0.00       0    86.8
 247    3:20   75.9    19    4.6   250      7.3   912.6    0.00       0    86.6
 247    3:30   76.0    20    6.6   233     11.0   912.6    0.00       0    86.5
 247    3:40   76.1    21    6.1   217      9.4   912.6    0.00       0    86.4
 247    3:50   75.3    22    7.1   228     10.1   912.6    0.00       0    86.2
 247    4:00   74.8    23    7.0   224     10.2   912.6    0.00       0    86.1
 247    4:10   74.3    24    5.2   209      7.4   912.5    0.00       0    86.0
 247    4:20   74.4    25    6.8   221     10.2   912.5    0.00       0    85.9
 247    4:30   74.3    25    6.5   221      9.8   912.5    0.00       0    85.7
 247    4:40   74.1    26    5.5   205      9.2   912.6    0.00       0    85.6
 247    4:50   73.7    26    4.3   202      7.9   912.6    0.00       0    85.5
 247    5:00   72.9    27    4.1   218      6.2   912.7    0.00       0    85.4
 247    5:10   72.4    28    3.7   206      5.9   912.9    0.00       2    85.4
 247    5:20   72.2    28    4.1   228      6.5   912.9    0.00       5    85.3
 247    5:30   72.3    28    4.2   225      6.1   913.0    0.00      19    85.2
 247    5:40   72.9    28    3.8   226      5.3   913.1    0.00      58    85.0
 247    5:50   73.5    27    3.2   227      4.9   913.3    0.00      87    84.9
 247    6:00   73.9    26    3.8   231      5.7   913.5    0.00     119    84.8
 247    6:10   74.6    26    3.8   219      5.6   913.7    0.00     152    84.7
 247    6:20   75.1    26    4.3   226      7.0   913.8    0.00     186    84.6
 247    6:30   75.7    26    5.2   232      7.4   914.1    0.00     220    84.5
 247    6:40   76.4    25    5.0   220      8.1   914.2    0.00     254    84.5
 247    6:50   77.6    24    5.2   194      8.0   914.3    0.00     289    84.5
 247    7:00   78.5    23    5.5   180      8.6   914.4    0.00     324    84.5
 247    7:10   79.2    23    5.1   176      8.5   914.6    0.00     360    84.6
 247    7:20   80.1    22    5.6   183      9.3   914.8    0.00     395    84.6
 247    7:30   80.7    22    7.7   174     11.8   914.9    0.00     428    84.8
 247    7:40   81.6    21    6.2   184     10.1   915.1    0.00     461    85.1
 247    7:50   82.1    20    6.5   177     10.4   915.1    0.00     491    85.3
 247    8:00   83.0    19    6.0   184     11.2   915.3    0.00     521    85.5
 247    8:10   83.6    18    7.9   190     13.8   915.3    0.00     551    85.7
 247    8:20   84.4    17    8.2   173     13.7   915.4    0.00     581    86.1
 247    8:30   85.2    16    5.4   148     11.5   915.5    0.00     609    86.4
 247    8:40   85.2    15    6.4   143     14.5   915.6    0.00     637    86.8
 247    8:50   85.8    14    5.0   136     11.8   915.7    0.00     662    87.3
 247    9:00   86.6    13    6.3   130     12.0   915.8    0.00     687    87.7
 247    9:10   86.0    13    6.7   124     16.3   915.9    0.00     709    88.1
 247    9:20   86.6    13    6.6   101     13.2   915.9    0.00     730    88.6
 247    9:30   86.7    12    8.2   112     16.3   915.9    0.00     548    89.1
 247    9:40   87.8    12    6.1   112     14.3   915.9    0.00      60    89.5
 247    9:50   88.1    13    6.8   131     15.6   915.9    0.00      48    89.9
 247   10:00   88.1    13    7.6   145     17.7   915.9    0.00     296    90.5
 247   10:10   89.0    13    9.0   141     20.8   915.9    0.00     544    91.1

Return to Boulder City, Nevada graphs page.


Western Regional Climate Center,wrcc@dri.edu